This demonstration page uses our WeatherBlox Daily Observations layout. Learn more.

Left ArrowRight Arrow

36.17497, -115.13722

Hourly Observations for October 2, 2019

Temp ( °F °C ) Dew Point ( °F °C ) Humidity (%) Winds ( mph kmh ) Pressure ( in mb ) Visibility ( mi km ) Precip ( " mm )
12:53 am 00:53 Clear 62 16.7 15 -9.4 16 16 WSW 5 7 29.92 1013 10 16.0934 N/A
1:53 am 01:53 Clear 60 15.6 19 -7.2 20 20 N N/A 29.94 1014 10 16.0934 N/A
2:53 am 02:53 Clear 62 16.7 16 -8.9 17 17 NNW 14 22 29.95 1014 10 16.0934 N/A
3:53 am 03:53 Clear 62 16.7 16 -8.9 17 17 NNW 14 22 29.95 1014 10 16.0934 N/A
4:53 am 04:53 Clear 62 16.7 16 -8.9 17 17 NNW 14 22 29.96 1015 10 16.0934 N/A
5:53 am 05:53 Clear 60 15.6 16 -8.9 18 18 NNW 13 20 29.99 1016 10 16.0934 N/A
6:53 am 06:53 Sunny 59 15 16 -8.9 18 18 NW 13 20 30.02 1017 10 16.0934 N/A
7:53 am 07:53 Sunny 62 16.7 16 -8.9 17 17 NW 9 15 30.05 1018 10 16.0934 N/A
8:53 am 08:53 Sunny 65 18.3 17 -8.3 16 16 NNW 8 13 30.07 1018 10 16.0934 N/A
9:53 am 09:53 Sunny 70 21.1 16 -8.9 12 12 N 8 13 30.07 1018 10 16.0934 N/A
10:53 am 10:53 Sunny 71 21.7 17 -8.3 13 13 SSE 6 9 30.08 1019 10 16.0934 N/A
11:53 am 11:53 Sunny 73 22.8 16 -8.9 11 11 N N/A 30.06 1018 10 16.0934 N/A
12:53 pm 12:53 Sunny 75 23.9 14 -10 10 10 E 8 13 30.04 1017 10 16.0934 N/A
1:53 pm 13:53 Sunny 75 23.9 13 -10.6 9 9 SE 5 7 30.01 1016 10 16.0934 N/A
2:53 pm 14:53 Sunny 77 25 13 -10.6 9 9 SE 7 11 29.99 1016 10 16.0934 N/A
3:53 pm 15:53 Sunny 78 25.6 11 -11.7 8 8 N N/A 29.97 1015 10 16.0934 N/A
4:53 pm 16:53 Sunny 78 25.6 9 -12.8 7 7 E 6 9 29.96 1015 10 16.0934 N/A
5:53 pm 17:53 Sunny 77 25 9 -12.8 7 7 N N/A 29.96 1015 10 16.0934 N/A
6:53 pm 18:53 Clear 75 23.9 10 -12.2 8 8 W 3 6 29.96 1015 10 16.0934 N/A
7:53 pm 19:53 Clear 72 22.2 13 -10.6 10 10 W 3 6 29.96 1015 10 16.0934 N/A
8:53 pm 20:53 Clear 66 18.9 18 -7.8 16 16 NW 7 11 29.98 1015 10 16.0934 N/A
9:53 pm 21:53 Clear 64 17.8 17 -8.3 16 16 NW 6 9 29.98 1015 10 16.0934 N/A
10:53 pm 22:53 Clear 63 17.2 17 -8.3 17 17 WNW 5 7 29.99 1016 10 16.0934 N/A
11:53 pm 23:53 Clear 60 15.6 19 -7.2 20 20 WNW 8 13 29.99 1016 10 16.0934 N/A

Powered by AerisWeather